| time (UTC) | temp C | wind direction | speed KPH | gust KPH | rain 1hr cm | rain 24hr cm | rain mn cm | humidity % | barometer mb |
| 20260906015153 | 15 | 298 | 0.0 | 0.0 | 0.00 | 0.43 | 0.43 | 96 | 1013.8 |
| 20260906014348 | 15 | 301 | 0.0 | 0.0 | 0.03 | 0.43 | 0.43 | 96 | 1013.5 |
| 20260906012150 | 16 | 301 | 0.0 | 0.0 | 0.05 | 0.43 | 0.43 | 96 | 1013.5 |
| 20260906010648 | 16 | 301 | 0.0 | 0.0 | 0.08 | 0.43 | 0.43 | 96 | 1013.4 |
| 20260906005148 | 16 | 301 | 0.0 | 0.0 | 0.08 | 0.43 | 0.43 | 95 | 1013.4 |
| 20260906003648 | 16 | 301 | 0.0 | 0.0 | 0.08 | 0.41 | 0.41 | 95 | 1013.4 |
| 20260906002145 | 16 | 301 | 0.0 | 0.0 | 0.23 | 0.38 | 0.38 | 94 | 1013.2 |
| 20260906000644 | 16 | 301 | 0.0 | 0.0 | 0.30 | 0.36 | 0.36 | 94 | 1013.3 |
| 20260905235144 | 16 | 301 | 0.0 | 0.0 | 0.30 | 0.38 | 0.36 | 94 | 1013.0 |
| 20260905233644 | 16 | 300 | 0.0 | 0.0 | 0.28 | 0.36 | 0.33 | 93 | 1012.7 |
| 20260905232142 | 17 | 313 | 0.0 | 0.0 | 0.10 | 0.18 | 0.18 | 92 | 1012.6 |
| 20260905230643 | 17 | 319 | 0.0 | 0.0 | 0.00 | 0.08 | 0.05 | 92 | 1012.1 |
| 20260905225142 | 17 | 319 | 0.0 | 0.0 | 0.00 | 0.08 | 0.05 | 92 | 1012.1 |
| 20260905223641 | 17 | 319 | 0.0 | 0.0 | 0.00 | 0.08 | 0.05 | 91 | 1012.1 |
| 20260905222140 | 18 | 319 | 0.0 | 0.0 | 0.03 | 0.08 | 0.05 | 91 | 1012.0 |
| 20260905221334 | 18 | 319 | 0.0 | 0.0 | 0.03 | 0.08 | 0.05 | 89 | 1011.8 |
| 20260905215140 | 18 | 319 | 0.0 | 0.0 | 0.03 | 0.08 | 0.05 | 87 | 1011.6 |
| 20260905213640 | 20 | 319 | 0.0 | 0.0 | 0.03 | 0.08 | 0.05 | 83 | 1011.5 |
| 20260905212139 | 20 | 321 | 0.0 | 0.0 | 0.00 | 0.05 | 0.03 | 77 | 1011.3 |
| 20260905210641 | 21 | 10 | 0.0 | 0.0 | 0.00 | 0.05 | 0.03 | 75 | 1011.0 |
| 20260905205138 | 21 | 309 | 0.0 | 0.0 | 0.00 | 0.05 | 0.03 | 76 | 1010.8 |
| 20260905203637 | 21 | 27 | 0.0 | 0.0 | 0.00 | 0.05 | 0.03 | 76 | 1010.8 |
| 20260905202137 | 20 | 28 | 0.0 | 0.0 | 0.00 | 0.05 | 0.03 | 75 | 1010.8 |
| 20260905200636 | 20 | 28 | 0.0 | 0.0 | 0.00 | 0.05 | 0.03 | 79 | 1010.8 |
| 20260905195137 | 20 | 9 | 0.0 | 0.0 | 0.00 | 0.05 | 0.03 | 75 | 1010.8 |
| 20260905193633 | 21 | 291 | 0.0 | 0.0 | 0.00 | 0.05 | 0.03 | 76 | 1010.8 |
| 20260905192133 | 21 | 306 | 0.0 | 0.0 | 0.00 | 0.05 | 0.03 | 76 | 1010.8 |
| 20260905190635 | 21 | 302 | 0.0 | 1.6 | 0.00 | 0.05 | 0.03 | 69 | 1010.9 |
| 20260905185131 | 21 | 26 | 0.0 | 9.7 | 0.00 | 0.05 | 0.03 | 67 | 1010.7 |
| 20260905184337 | 21 | 290 | 0.0 | 8.0 | 0.00 | 0.05 | 0.03 | 68 | 1010.7 |
| 20260905182132 | 21 | 297 | 0.0 | 0.0 | 0.00 | 0.05 | 0.03 | 70 | 1010.8 |
| 20260905180630 | 22 | 285 | 0.0 | 0.0 | 0.00 | 0.05 | 0.03 | 66 | 1010.7 |
| 20260905175129 | 23 | 47 | 0.0 | 1.6 | 0.00 | 0.05 | 0.03 | 68 | 1010.9 |
| 20260905173629 | 21 | 311 | 0.0 | 4.8 | 0.00 | 0.05 | 0.03 | 70 | 1010.8 |
| 20260905172131 | 21 | 355 | 0.0 | 4.8 | 0.00 | 0.05 | 0.03 | 72 | 1010.9 |
| 20260905170631 | 21 | 308 | 1.6 | 14.5 | 0.00 | 0.05 | 0.03 | 71 | 1010.9 |
| 20260905165826 | 20 | 306 | 0.0 | 4.8 | 0.00 | 0.05 | 0.03 | 70 | 1011.0 |
| 20260905164320 | 21 | 306 | 0.0 | 4.8 | 0.00 | 0.05 | 0.03 | 69 | 1011.2 |
| 20260905162126 | 21 | 327 | 0.0 | 4.8 | 0.00 | 0.05 | 0.03 | 73 | 1011.1 |
| 20260905161316 | 21 | 304 | 0.0 | 1.6 | 0.00 | 0.05 | 0.03 | 70 | 1011.2 |
| 20260905155125 | 21 | 287 | 0.0 | 6.4 | 0.03 | 0.05 | 0.03 | 70 | 1011.2 |
| 20260905153623 | 21 | 313 | 0.0 | 6.4 | 0.03 | 0.05 | 0.03 | 70 | 1011.4 |
| 20260905152824 | 21 | 5 | 0.0 | 0.0 | 0.03 | 0.05 | 0.03 | 73 | 1011.2 |
| 20260905150623 | 21 | 319 | 0.0 | 1.6 | 0.03 | 0.05 | 0.03 | 77 | 1011.1 |
| 20260905145120 | 21 | 311 | 0.0 | 1.6 | 0.00 | 0.03 | 0.00 | 75 | 1011.0 |
| 20260905143620 | 20 | 46 | 0.0 | 8.0 | 0.00 | 0.03 | 0.00 | 77 | 1011.1 |
| 20260905142118 | 19 | 347 | 0.0 | 0.0 | 0.00 | 0.03 | 0.00 | 83 | 1011.2 |
| 20260905140619 | 19 | 300 | 0.0 | 8.0 | 0.00 | 0.03 | 0.00 | 82 | 1011.1 |
| 20260905135116 | 18 | 237 | 0.0 | 4.8 | 0.00 | 0.03 | 0.00 | 91 | 1011.1 |
| 20260905133616 | 17 | 287 | 0.0 | 8.0 | 0.00 | 0.03 | 0.00 | 95 | 1010.8 |
| 20260905132118 | 16 | 321 | 0.0 | 0.0 | 0.00 | 0.03 | 0.00 | 99 | 1010.8 |
| 20260905130616 | 16 | 311 | 0.0 | 0.0 | 0.00 | 0.03 | 0.00 | 99 | 1010.8 |
| 20260905125116 | 15 | 330 | 0.0 | 0.0 | 0.00 | 0.03 | 0.00 | 99 | 1010.8 |
| 20260905123616 | 14 | 330 | 0.0 | 0.0 | 0.00 | 0.03 | 0.00 | 99 | 1011.1 |
| 20260905122118 | 14 | 330 | 0.0 | 0.0 | 0.00 | 0.03 | 0.00 | 99 | 1011.0 |
| 20260905120614 | 13 | 330 | 0.0 | 0.0 | 0.00 | 0.03 | 0.00 | 99 | 1010.9 |
| 20260905115113 | 13 | 330 | 0.0 | 0.0 | 0.00 | 0.03 | 0.00 | 99 | 1010.8 |
| 20260905114258 | 12 | 330 | 0.0 | 0.0 | 0.00 | 0.03 | 0.00 | 99 | 1010.7 |
| 20260905112106 | 12 | 330 | 0.0 | 0.0 | 0.00 | 0.03 | 0.00 | 99 | 1010.6 |
| 20260905110605 | 11 | 330 | 0.0 | 0.0 | 0.00 | 0.03 | 0.00 | 98 | 1010.6 |
| 20260905105104 | 11 | 330 | 0.0 | 0.0 | 0.00 | 0.03 | 0.00 | 97 | 1010.5 |
| 20260905103603 | 11 | 330 | 0.0 | 0.0 | 0.00 | 0.03 | 0.00 | 97 | 1010.2 |
| 20260905102103 | 11 | 330 | 0.0 | 0.0 | 0.00 | 0.03 | 0.00 | 97 | 1010.0 |
| 20260905101857 | 11 | 330 | 0.0 | 0.0 | 0.00 | 0.03 | 0.00 | 97 | 1009.6 |
| 20260905101724 | 12 | 330 | 0.0 | 0.0 | 0.00 | 0.03 | 0.00 | 96 | 1009.8 |
| 20260905101549 | 12 | 330 | 0.0 | 0.0 | 0.00 | 0.03 | 0.00 | 96 | 1009.6 |
| 20260905101541 | 12 | 330 | 0.0 | 0.0 | 0.00 | 0.03 | 0.00 | 96 | 1009.6 |
| 20260905101533 | 12 | 330 | 0.0 | 0.0 | 0.00 | 0.03 | 0.00 | 96 | 1009.6 |
| 20260905101528 | 11 | 330 | 0.0 | 0.0 | 0.00 | 0.03 | 0.00 | 97 | 1009.8 |
| 20260905101337 | 11 | 330 | 0.0 | 0.0 | 0.00 | 0.03 | 0.00 | 97 | 1009.8 |
| 20260905101327 | 11 | 330 | 0.0 | 0.0 | 0.00 | 0.03 | 0.00 | 97 | 1009.7 |
| 20260905101317 | 11 | 330 | 0.0 | 0.0 | 0.00 | 0.03 | 0.00 | 97 | 1009.7 |
| 20260905101309 | 11 | 330 | 0.0 | 0.0 | 0.00 | 0.03 | 0.00 | 97 | 1009.9 |
| 20260905101138 | 12 | 330 | 0.0 | 0.0 | 0.00 | 0.03 | 0.00 | 97 | 1009.8 |
| 20260905070548 | 12 | 330 | 0.0 | 0.0 | 0.00 | 0.03 | 0.00 | 96 | 1009.7 |
| 20260905065044 | 12 | 330 | 0.0 | 0.0 | 0.00 | 0.03 | 0.00 | 96 | 1010.0 |
| 20260905063544 | 13 | 330 | 0.0 | 0.0 | 0.00 | 0.03 | 0.00 | 96 | 1009.9 |
| 20260905062040 | 13 | 330 | 0.0 | 0.0 | 0.00 | 0.03 | 0.00 | 96 | 1010.0 |
| 20260905060539 | 13 | 330 | 0.0 | 0.0 | 0.00 | 0.03 | 0.00 | 96 | 1009.9 |
| 20260905055740 | 13 | 330 | 0.0 | 0.0 | 0.00 | 0.03 | 0.00 | 96 | 1009.9 |
| 20260905055004 | 13 | 330 | 0.0 | 0.0 | 0.00 | 0.03 | 0.00 | 96 | 1009.9 |
| 20260905052035 | 13 | 330 | 0.0 | 0.0 | 0.00 | 0.03 | 0.00 | 95 | 1009.9 |
| 20260905051235 | 14 | 330 | 0.0 | 0.0 | 0.00 | 0.03 | 0.00 | 96 | 1010.0 |
| 20260905045034 | 14 | 330 | 0.0 | 0.0 | 0.00 | 0.03 | 0.00 | 96 | 1010.3 |
| 20260905043536 | 14 | 330 | 0.0 | 0.0 | 0.00 | 0.03 | 0.00 | 96 | 1010.5 |
| 20260905042035 | 14 | 330 | 0.0 | 0.0 | 0.00 | 0.03 | 0.00 | 95 | 1010.5 |
| 20260905040535 | 15 | 330 | 0.0 | 0.0 | 0.00 | 0.03 | 0.00 | 95 | 1010.6 |
| 20260905035034 | 15 | 330 | 0.0 | 0.0 | 0.00 | 0.03 | 0.03 | 95 | 1010.4 |
| 20260905033528 | 15 | 330 | 0.0 | 0.0 | 0.00 | 0.03 | 0.03 | 94 | 1010.3 |
| 20260905032027 | 15 | 330 | 0.0 | 0.0 | 0.00 | 0.03 | 0.03 | 94 | 1010.4 |
| 20260905030526 | 15 | 330 | 0.0 | 0.0 | 0.00 | 0.03 | 0.03 | 94 | 1010.4 |
| 20260905025027 | 16 | 330 | 0.0 | 0.0 | 0.00 | 0.03 | 0.03 | 94 | 1010.5 |
| 20260905023528 | 16 | 330 | 0.0 | 0.0 | 0.00 | 0.03 | 0.03 | 94 | 1010.6 |
| 20260905022029 | 16 | 330 | 0.0 | 0.0 | 0.00 | 0.03 | 0.03 | 94 | 1010.7 |
| 20260905020528 | 16 | 330 | 0.0 | 0.0 | 0.00 | 0.03 | 0.03 | 94 | 1010.9 |